Weather in Belogorsk

Russia / Republic of Crimea     45°03′25″N   34°35′59″E
temp.,
°C
wind,
m/s
gust,
m/s
humid.,
%
clouds,
%
prec.,
mm/h
press.,
hPa
HPBL,
m
7 march, sun
sun700:00−3nnw487853 0.0 1027573
03:00−4nw247526 0.0 1028334
06:00−4wnw23660 0.0 1028305
09:00−3wnw23390 0.0 1028438
12:00+1w45270 0.0 10271190
15:00+2w56360 0.0 10251415
18:00−1w46530 0.0 10241012
21:00−2wsw37610 0.0 1023425
8 march, mon
mon800:00−2sw37590 0.0 1022407
03:00−2sw47590 0.0 1021368
06:00−2sw37632 0.0 1019300
09:000sw466012 0.0 1018616
12:00+3wsw575420 0.0 10181130
15:00+3wsw685933 0.0 10171230
18:00+1wsw697177 0.0 1015817
21:00−1sw4109172 0.1 1016450
9 march, tue
tue900:000wsw369590 0.3 1017367
03:00−1wsw239370 0.6 101786
06:00−1wsw12852 0.0 101724
09:00+1nw34723 0.0 1019444
12:00+2nw346478 0.1 1020949
15:00+3wnw466386 0.4 10201216
18:00+2wnw356895 0.4 10191021
21:00−1wnw227263 0.6 102165
10 march, wed
wed1000:00−2w016453 0.0 102121
03:00−2n116577 0.0 102144
06:00−2nne1171100 0.0 1021117
09:00−1ene2468100 0.0 1021368
12:00+1ene4463100 0.0 1021826
15:00+1ene5569100 0.0 1020780
18:00−1ene4687100 0.1 1019561
21:00−2ene4689100 0.2 1020508
11 march, thu
thu1100:00−3ne3580100 0.1 1021498
03:00−4nne277078 0.1 1022468
06:00−4ne487741 0.0 1023650
09:00−2ne576346 0.1 10251056
12:000ne555030 0.0 10261225
15:000ne444517 0.0 10271231
18:00−2ne33560 0.0 1027805
21:00−4ese23650 0.0 1028220